| time (UTC) | temp F | wind direction | speed MPH | gust MPH | rain 1hr in | rain 24hr in | rain mn in | humidity % | barometer mb |
| 20260502220555 | 47 | 0 | 0.0 | 5.0 | 0.00 | 0.00 | 0.00 | 52 | 1014.0 |
| 20260502220054 | 47 | 289 | 1.0 | 7.0 | 0.00 | 0.00 | 0.00 | 51 | 1014.1 |
| 20260502215555 | 47 | 306 | 1.0 | 7.0 | 0.00 | 0.00 | 0.00 | 53 | 1013.9 |
| 20260502215054 | 47 | 352 | 2.0 | 8.0 | 0.00 | 0.00 | 0.00 | 51 | 1013.9 |
| 20260502214555 | 48 | 348 | 1.0 | 8.0 | 0.00 | 0.00 | 0.00 | 52 | 1013.9 |
| 20260502214054 | 47 | 286 | 1.0 | 5.0 | 0.00 | 0.00 | 0.00 | 51 | 1013.9 |
| 20260502213554 | 47 | 290 | 1.0 | 5.0 | 0.00 | 0.00 | 0.00 | 51 | 1013.9 |
| 20260502213100 | 47 | 297 | 2.0 | 7.0 | 0.00 | 0.00 | 0.00 | 51 | 1013.9 |
| 20260502212554 | 47 | 340 | 2.0 | 8.0 | 0.00 | 0.00 | 0.00 | 50 | 1013.9 |
| 20260502212055 | 47 | 272 | 1.0 | 8.0 | 0.00 | 0.00 | 0.00 | 49 | 1013.9 |
| 20260502211603 | 47 | 242 | 2.0 | 8.0 | 0.00 | 0.00 | 0.00 | 50 | 1013.9 |
| 20260502211057 | 48 | 0 | 2.0 | 8.0 | 0.00 | 0.00 | 0.00 | 49 | 1013.9 |
| 20260502210554 | 48 | 259 | 1.0 | 9.0 | 0.00 | 0.00 | 0.00 | 49 | 1013.9 |
| 20260502210117 | 47 | 348 | 3.0 | 9.0 | 0.00 | 0.00 | 0.00 | 51 | 1014.0 |
| 20260502205555 | 47 | 302 | 1.0 | 6.0 | 0.00 | 0.00 | 0.00 | 50 | 1014.1 |
| 20260502205058 | 46 | 0 | 2.0 | 6.0 | 0.00 | 0.00 | 0.00 | 49 | 1014.1 |
| 20260502204558 | 46 | 286 | 2.0 | 7.0 | 0.00 | 0.00 | 0.00 | 48 | 1014.1 |
| 20260502204054 | 46 | 295 | 2.0 | 8.0 | 0.00 | 0.00 | 0.00 | 48 | 1014.2 |
| 20260502203555 | 47 | 338 | 2.0 | 8.0 | 0.00 | 0.00 | 0.00 | 48 | 1014.2 |
| 20260502203057 | 47 | 268 | 2.0 | 8.0 | 0.00 | 0.00 | 0.00 | 48 | 1014.2 |
| 20260502202554 | 47 | 298 | 3.0 | 8.0 | 0.00 | 0.00 | 0.00 | 52 | 1014.2 |
| 20260502202054 | 47 | 294 | 2.0 | 8.0 | 0.00 | 0.00 | 0.00 | 50 | 1014.3 |
| 20260502201556 | 47 | 290 | 1.0 | 7.0 | 0.00 | 0.00 | 0.00 | 51 | 1014.3 |
| 20260502201055 | 47 | 5 | 2.0 | 8.0 | 0.00 | 0.00 | 0.00 | 49 | 1014.3 |
| 20260502200555 | 47 | 294 | 2.0 | 8.0 | 0.00 | 0.00 | 0.00 | 50 | 1014.3 |
| 20260502200057 | 47 | 312 | 1.0 | 8.0 | 0.00 | 0.00 | 0.00 | 49 | 1014.3 |
| 20260502195555 | 47 | 323 | 2.0 | 8.0 | 0.00 | 0.00 | 0.00 | 51 | 1014.4 |
| 20260502195055 | 47 | 343 | 2.0 | 11.0 | 0.00 | 0.00 | 0.00 | 51 | 1014.5 |
| 20260502194555 | 47 | 278 | 2.0 | 11.0 | 0.00 | 0.00 | 0.00 | 50 | 1014.6 |
| 20260502194058 | 47 | 328 | 2.0 | 8.0 | 0.00 | 0.00 | 0.00 | 47 | 1014.7 |
| 20260502193554 | 48 | 342 | 3.0 | 6.0 | 0.00 | 0.00 | 0.00 | 48 | 1014.6 |
| 20260502193102 | 48 | 331 | 2.0 | 8.0 | 0.00 | 0.00 | 0.00 | 50 | 1014.6 |
| 20260502192555 | 48 | 5 | 2.0 | 8.0 | 0.00 | 0.00 | 0.00 | 51 | 1014.8 |
| 20260502192054 | 47 | 300 | 1.0 | 7.0 | 0.00 | 0.00 | 0.00 | 48 | 1014.7 |
| 20260502191601 | 47 | 17 | 3.0 | 8.0 | 0.00 | 0.00 | 0.00 | 51 | 1015.0 |
| 20260502191055 | 47 | 317 | 3.0 | 8.0 | 0.00 | 0.00 | 0.00 | 49 | 1014.9 |
| 20260502190555 | 47 | 333 | 1.0 | 8.0 | 0.00 | 0.00 | 0.00 | 51 | 1014.9 |
| 20260502190110 | 47 | 355 | 2.0 | 8.0 | 0.00 | 0.00 | 0.00 | 49 | 1015.0 |
| 20260502185554 | 47 | 352 | 3.0 | 8.0 | 0.00 | 0.00 | 0.00 | 51 | 1015.0 |
| 20260502185054 | 47 | 19 | 3.0 | 7.0 | 0.00 | 0.00 | 0.00 | 49 | 1015.0 |
| 20260502184601 | 47 | 306 | 2.0 | 7.0 | 0.00 | 0.00 | 0.00 | 51 | 1015.0 |
| 20260502184054 | 47 | 280 | 1.0 | 8.0 | 0.00 | 0.00 | 0.00 | 49 | 1015.1 |
| 20260502183555 | 46 | 196 | 1.0 | 11.0 | 0.00 | 0.00 | 0.00 | 49 | 1015.1 |
| 20260502183110 | 46 | 327 | 3.0 | 11.0 | 0.00 | 0.00 | 0.00 | 50 | 1015.2 |
| 20260502182555 | 48 | 352 | 3.0 | 10.0 | 0.00 | 0.00 | 0.00 | 50 | 1015.1 |
| 20260502182055 | 48 | 308 | 2.0 | 10.0 | 0.00 | 0.00 | 0.00 | 50 | 1015.1 |
| 20260502181555 | 48 | 360 | 3.0 | 9.0 | 0.00 | 0.00 | 0.00 | 47 | 1015.2 |
| 20260502181055 | 47 | 352 | 3.0 | 9.0 | 0.00 | 0.00 | 0.00 | 53 | 1015.2 |
| 20260502180559 | 46 | 322 | 3.0 | 8.0 | 0.00 | 0.00 | 0.00 | 49 | 1015.4 |
| 20260502164054 | 46 | 13 | 2.0 | 10.0 | 0.00 | 0.00 | 0.00 | 51 | 1015.8 |
| 20260502163554 | 48 | 30 | 1.0 | 10.0 | 0.00 | 0.00 | 0.00 | 54 | 1015.8 |
| 20260502163105 | 47 | 338 | 6.0 | 10.0 | 0.00 | 0.00 | 0.00 | 51 | 1016.0 |
| 20260502162555 | 45 | 325 | 5.0 | 10.0 | 0.00 | 0.00 | 0.00 | 54 | 1015.9 |
| 20260502162053 | 46 | 329 | 2.0 | 9.0 | 0.00 | 0.00 | 0.00 | 53 | 1015.9 |
| 20260502161620 | 44 | 267 | 3.0 | 11.0 | 0.00 | 0.00 | 0.00 | 54 | 1015.9 |
| 20260502161057 | 45 | 321 | 4.0 | 11.0 | 0.00 | 0.00 | 0.00 | 55 | 1016.0 |
| 20260502160554 | 45 | 259 | 2.0 | 8.0 | 0.00 | 0.00 | 0.00 | 52 | 1016.0 |
| 20260502152059 | 45 | 345 | 2.0 | 14.0 | 0.00 | 0.00 | 0.00 | 56 | 1015.7 |
| 20260502151605 | 45 | 331 | 4.0 | 14.0 | 0.00 | 0.00 | 0.00 | 56 | 1015.7 |
| 20260502151055 | 46 | 286 | 5.0 | 14.0 | 0.00 | 0.00 | 0.00 | 54 | 1015.9 |
| 20260502150554 | 45 | 323 | 4.0 | 10.0 | 0.00 | 0.00 | 0.00 | 56 | 1015.7 |
| 20260502130554 | 40 | 344 | 2.0 | 9.0 | 0.00 | 0.00 | 0.00 | 69 | 1015.9 |
| 20260502123554 | 39 | 5 | 2.0 | 10.0 | 0.00 | 0.00 | 0.00 | 71 | 1015.8 |
| 20260502123057 | 38 | 349 | 4.0 | 13.0 | 0.00 | 0.00 | 0.00 | 71 | 1015.7 |
| 20260502122554 | 38 | 338 | 4.0 | 13.0 | 0.00 | 0.00 | 0.00 | 71 | 1015.8 |
| 20260502122055 | 38 | 328 | 5.0 | 13.0 | 0.00 | 0.00 | 0.00 | 71 | 1015.9 |
| 20260502121559 | 38 | 347 | 4.0 | 13.0 | 0.00 | 0.00 | 0.00 | 73 | 1015.8 |
| 20260502121054 | 37 | 345 | 6.0 | 13.0 | 0.00 | 0.00 | 0.00 | 72 | 1015.7 |
| 20260502120556 | 37 | 322 | 3.0 | 9.0 | 0.00 | 0.00 | 0.00 | 73 | 1015.7 |
| 20260502115554 | 36 | 350 | 2.0 | 8.0 | 0.00 | 0.00 | 0.00 | 75 | 1015.7 |
| 20260502115057 | 36 | 338 | 2.0 | 8.0 | 0.00 | 0.00 | 0.00 | 76 | 1015.6 |
| 20260502114557 | 35 | 332 | 2.0 | 5.0 | 0.00 | 0.00 | 0.00 | 77 | 1015.6 |
| 20260502114057 | 35 | 321 | 1.0 | 5.0 | 0.00 | 0.00 | 0.00 | 77 | 1015.7 |
| 20260502113556 | 35 | 316 | 1.0 | 3.0 | 0.00 | 0.00 | 0.00 | 77 | 1015.7 |
| 20260502113057 | 34 | 316 | 0.0 | 4.0 | 0.00 | 0.00 | 0.00 | 77 | 1015.6 |
| 20260502112554 | 34 | 347 | 0.0 | 4.0 | 0.00 | 0.00 | 0.00 | 78 | 1015.6 |
| 20260502112054 | 34 | 347 | 0.0 | 3.0 | 0.00 | 0.00 | 0.00 | 78 | 1015.5 |
| 20260502111606 | 33 | 309 | 0.0 | 2.0 | 0.00 | 0.00 | 0.00 | 78 | 1015.5 |
| 20260502111055 | 33 | 0 | 0.0 | 2.0 | 0.00 | 0.00 | 0.00 | 79 | 1015.5 |
| 20260502110557 | 33 | 0 | 0.0 | 3.0 | 0.00 | 0.00 | 0.00 | 79 | 1015.4 |
| 20260502110058 | 32 | 335 | 0.0 | 3.0 | 0.00 | 0.00 | 0.00 | 79 | 1015.3 |
| 20260502105558 | 32 | 0 | 0.0 | 3.0 | 0.00 | 0.00 | 0.00 | 79 | 1015.1 |
| 20260502105055 | 32 | 335 | 0.0 | 2.0 | 0.00 | 0.00 | 0.00 | 79 | 1015.2 |
| 20260502104557 | 32 | 0 | 0.0 | 2.0 | 0.00 | 0.00 | 0.00 | 79 | 1015.1 |
| 20260502104054 | 32 | 0 | 0.0 | 2.0 | 0.00 | 0.00 | 0.00 | 79 | 1015.1 |
| 20260502103558 | 32 | 0 | 0.0 | 2.0 | 0.00 | 0.00 | 0.00 | 78 | 1015.1 |
| 20260502103057 | 33 | 335 | 0.0 | 2.0 | 0.00 | 0.00 | 0.00 | 78 | 1015.1 |
| 20260502102554 | 33 | 0 | 0.0 | 1.0 | 0.00 | 0.00 | 0.00 | 78 | 1015.1 |
| 20260502102056 | 33 | 0 | 0.0 | 1.0 | 0.00 | 0.00 | 0.00 | 78 | 1015.1 |
| 20260502101556 | 33 | 0 | 0.0 | 0.0 | 0.00 | 0.00 | 0.00 | 77 | 1015.1 |
| 20260502101054 | 33 | 0 | 0.0 | 1.0 | 0.00 | 0.00 | 0.00 | 77 | 1015.1 |
| 20260502100554 | 33 | 0 | 0.0 | 2.0 | 0.00 | 0.00 | 0.00 | 77 | 1015.1 |
| 20260502091053 | 35 | 0 | 0.0 | 0.0 | 0.00 | 0.00 | 0.00 | 74 | 1014.6 |
| 20260502090555 | 36 | 0 | 0.0 | 1.0 | 0.00 | 0.00 | 0.00 | 73 | 1014.7 |
| 20260502090114 | 35 | 0 | 0.0 | 2.0 | 0.00 | 0.00 | 0.00 | 73 | 1014.7 |
| 20260502071057 | 39 | 334 | 1.0 | 4.0 | 0.00 | 0.02 | 0.00 | 69 | 1014.3 |
| 20260502070554 | 39 | 329 | 1.0 | 4.0 | 0.00 | 0.02 | 0.00 | 69 | 1014.3 |
| 20260502070107 | 39 | 329 | 1.0 | 4.0 | 0.00 | 0.02 | 0.00 | 70 | 1014.2 |
| 20260502065556 | 39 | 335 | 1.0 | 4.0 | 0.00 | 0.02 | 0.00 | 69 | 1014.3 |
| 20260502065054 | 39 | 346 | 1.0 | 6.0 | 0.00 | 0.02 | 0.00 | 70 | 1014.3 |
| 20260502064558 | 39 | 329 | 2.0 | 8.0 | 0.00 | 0.02 | 0.00 | 71 | 1014.4 |
| 20260502064055 | 39 | 348 | 2.0 | 8.0 | 0.00 | 0.02 | 0.00 | 70 | 1014.3 |
| 20260502063557 | 39 | 360 | 2.0 | 8.0 | 0.00 | 0.02 | 0.00 | 70 | 1014.4 |
| 20260502063100 | 39 | 355 | 2.0 | 6.0 | 0.00 | 0.02 | 0.00 | 71 | 1014.4 |
| 20260502062554 | 39 | 5 | 3.0 | 6.0 | 0.00 | 0.02 | 0.00 | 73 | 1014.4 |
| 20260502062053 | 39 | 350 | 1.0 | 3.0 | 0.00 | 0.02 | 0.00 | 75 | 1014.5 |
| 20260502061555 | 39 | 0 | 0.0 | 3.0 | 0.00 | 0.02 | 0.00 | 76 | 1014.6 |
| 20260502061056 | 39 | 0 | 0.0 | 3.0 | 0.00 | 0.02 | 0.00 | 75 | 1014.6 |
| 20260502060559 | 39 | 0 | 1.0 | 3.0 | 0.00 | 0.02 | 0.00 | 75 | 1014.6 |
| 20260502060058 | 39 | 350 | 0.0 | 3.0 | 0.00 | 0.02 | 0.00 | 76 | 1014.6 |
| 20260502055557 | 39 | 350 | 0.0 | 3.0 | 0.00 | 0.03 | 0.00 | 76 | 1014.7 |
| 20260502055054 | 39 | 350 | 1.0 | 4.0 | 0.00 | 0.03 | 0.00 | 75 | 1014.7 |
| 20260502054556 | 39 | 0 | 1.0 | 4.0 | 0.00 | 0.03 | 0.00 | 76 | 1014.7 |
| 20260502054054 | 39 | 0 | 1.0 | 6.0 | 0.00 | 0.03 | 0.00 | 75 | 1014.7 |
| 20260502053554 | 39 | 350 | 1.0 | 7.0 | 0.00 | 0.03 | 0.00 | 76 | 1014.7 |
| 20260502053119 | 39 | 355 | 3.0 | 7.0 | 0.00 | 0.03 | 0.00 | 75 | 1014.6 |
| 20260502052556 | 39 | 328 | 1.0 | 4.0 | 0.00 | 0.03 | 0.00 | 77 | 1014.6 |
| 20260502052055 | 39 | 0 | 1.0 | 4.0 | 0.00 | 0.03 | 0.00 | 77 | 1014.6 |
| 20260502051607 | 39 | 0 | 1.0 | 4.0 | 0.00 | 0.03 | 0.00 | 77 | 1014.7 |
| 20260502051058 | 39 | 314 | 1.0 | 3.0 | 0.00 | 0.03 | 0.00 | 77 | 1014.6 |
| 20260502050556 | 39 | 0 | 0.0 | 2.0 | 0.00 | 0.03 | 0.00 | 77 | 1014.6 |
| 20260502050057 | 39 | 0 | 0.0 | 2.0 | 0.00 | 0.03 | 0.00 | 77 | 1014.6 |
| 20260502045555 | 39 | 0 | 0.0 | 2.0 | 0.00 | 0.07 | 0.00 | 77 | 1014.6 |
| 20260502045057 | 39 | 0 | 0.0 | 1.0 | 0.00 | 0.07 | 0.00 | 77 | 1014.5 |
| 20260502044557 | 39 | 0 | 0.0 | 3.0 | 0.00 | 0.07 | 0.00 | 78 | 1014.4 |
| 20260502044058 | 39 | 0 | 0.0 | 3.0 | 0.00 | 0.07 | 0.00 | 77 | 1014.4 |
| 20260502043556 | 39 | 0 | 0.0 | 3.0 | 0.00 | 0.07 | 0.00 | 77 | 1014.4 |
| 20260502043112 | 39 | 314 | 0.0 | 5.0 | 0.00 | 0.07 | 0.00 | 77 | 1014.4 |
| 20260502042555 | 39 | 314 | 0.0 | 5.0 | 0.00 | 0.07 | 0.00 | 78 | 1014.4 |
| 20260502042055 | 39 | 342 | 0.0 | 3.0 | 0.00 | 0.07 | 0.00 | 79 | 1014.4 |
| 20260502041631 | 39 | 317 | 0.0 | 2.0 | 0.00 | 0.07 | 0.00 | 79 | 1014.3 |
| 20260502041054 | 39 | 0 | 0.0 | 0.0 | 0.00 | 0.07 | 0.00 | 80 | 1014.1 |
| 20260502040554 | 38 | 0 | 0.0 | 0.0 | 0.00 | 0.07 | 0.00 | 80 | 1014.2 |
| 20260502040059 | 39 | 0 | 0.0 | 0.0 | 0.00 | 0.07 | 0.00 | 80 | 1014.1 |
| 20260502035554 | 39 | 0 | 0.0 | 0.0 | 0.00 | 0.10 | 0.07 | 79 | 1014.1 |
| 20260502035056 | 39 | 0 | 0.0 | 0.0 | 0.00 | 0.10 | 0.07 | 78 | 1014.2 |
| 20260502034556 | 38 | 0 | 0.0 | 0.0 | 0.00 | 0.10 | 0.07 | 79 | 1014.1 |
| 20260502034055 | 39 | 0 | 0.0 | 0.0 | 0.00 | 0.10 | 0.07 | 79 | 1014.1 |
| 20260502033557 | 38 | 0 | 0.0 | 0.0 | 0.00 | 0.10 | 0.07 | 79 | 1014.1 |
| 20260502033106 | 38 | 0 | 0.0 | 0.0 | 0.00 | 0.10 | 0.07 | 78 | 1014.2 |
| 20260502032555 | 38 | 0 | 0.0 | 0.0 | 0.00 | 0.10 | 0.07 | 77 | 1014.3 |
| 20260502032055 | 38 | 0 | 0.0 | 0.0 | 0.00 | 0.10 | 0.07 | 77 | 1014.2 |
| 20260502031601 | 38 | 0 | 0.0 | 1.0 | 0.00 | 0.10 | 0.07 | 77 | 1014.2 |
| 20260502031058 | 38 | 0 | 0.0 | 1.0 | 0.00 | 0.10 | 0.07 | 77 | 1014.2 |
| 20260502030554 | 38 | 0 | 0.0 | 2.0 | 0.00 | 0.10 | 0.07 | 77 | 1014.2 |
| 20260502030100 | 38 | 317 | 0.0 | 2.0 | 0.00 | 0.10 | 0.07 | 77 | 1014.2 |
| 20260502025555 | 39 | 317 | 0.0 | 2.0 | 0.00 | 0.10 | 0.07 | 76 | 1014.2 |
| 20260502025054 | 39 | 317 | 0.0 | 2.0 | 0.00 | 0.10 | 0.07 | 76 | 1014.2 |
| 20260502024600 | 39 | 0 | 0.0 | 2.0 | 0.00 | 0.10 | 0.07 | 76 | 1014.2 |
| 20260502024056 | 39 | 317 | 0.0 | 1.0 | 0.00 | 0.10 | 0.07 | 76 | 1014.2 |
| 20260502023559 | 39 | 0 | 0.0 | 0.0 | 0.00 | 0.10 | 0.07 | 76 | 1014.1 |
| 20260502023100 | 39 | 0 | 0.0 | 0.0 | 0.00 | 0.10 | 0.07 | 76 | 1014.2 |
| 20260502022554 | 39 | 0 | 0.0 | 0.0 | 0.00 | 0.10 | 0.07 | 77 | 1014.1 |
| 20260502022054 | 40 | 0 | 0.0 | 0.0 | 0.00 | 0.10 | 0.07 | 76 | 1014.2 |
| 20260502021600 | 40 | 0 | 0.0 | 0.0 | 0.00 | 0.10 | 0.07 | 74 | 1014.1 |
| 20260502021055 | 40 | 0 | 0.0 | 0.0 | 0.00 | 0.10 | 0.07 | 74 | 1013.9 |
| 20260502020555 | 40 | 0 | 0.0 | 0.0 | 0.00 | 0.10 | 0.07 | 74 | 1013.9 |
| 20260502020106 | 40 | 0 | 0.0 | 0.0 | 0.00 | 0.10 | 0.07 | 74 | 1013.8 |
| 20260502015555 | 41 | 0 | 0.0 | 0.0 | 0.00 | 0.10 | 0.07 | 73 | 1013.7 |
| 20260502015055 | 41 | 0 | 0.0 | 3.0 | 0.00 | 0.10 | 0.07 | 73 | 1013.8 |
| 20260502014557 | 41 | 0 | 0.0 | 3.0 | 0.00 | 0.10 | 0.07 | 72 | 1013.6 |
| 20260502014054 | 41 | 355 | 1.0 | 4.0 | 0.00 | 0.10 | 0.07 | 72 | 1013.5 |
| 20260502013557 | 42 | 352 | 0.0 | 5.0 | 0.00 | 0.10 | 0.07 | 71 | 1013.6 |
| 20260502013101 | 42 | 302 | 1.0 | 5.0 | 0.00 | 0.10 | 0.07 | 70 | 1013.5 |
| 20260502012556 | 42 | 332 | 1.0 | 4.0 | 0.00 | 0.10 | 0.07 | 71 | 1013.5 |
| 20260502012054 | 42 | 0 | 0.0 | 5.0 | 0.00 | 0.10 | 0.07 | 72 | 1013.5 |
| 20260502011600 | 42 | 338 | 1.0 | 5.0 | 0.00 | 0.10 | 0.07 | 72 | 1013.4 |
| 20260502011054 | 42 | 360 | 0.0 | 3.0 | 0.00 | 0.10 | 0.07 | 72 | 1013.4 |
| 20260502010556 | 42 | 0 | 1.0 | 6.0 | 0.00 | 0.10 | 0.07 | 72 | 1013.3 |
| 20260502010104 | 42 | 0 | 0.0 | 6.0 | 0.00 | 0.10 | 0.07 | 71 | 1013.3 |
| 20260502005555 | 42 | 314 | 1.0 | 6.0 | 0.00 | 0.10 | 0.07 | 70 | 1013.3 |
| 20260502005054 | 42 | 331 | 1.0 | 4.0 | 0.00 | 0.10 | 0.07 | 72 | 1013.3 |
| 20260502004600 | 42 | 330 | 0.0 | 5.0 | 0.00 | 0.10 | 0.07 | 71 | 1013.2 |
| 20260502004054 | 42 | 309 | 0.0 | 5.0 | 0.00 | 0.10 | 0.07 | 72 | 1013.4 |
| 20260502003556 | 43 | 0 | 2.0 | 6.0 | 0.00 | 0.10 | 0.07 | 70 | 1013.3 |
| 20260502003056 | 43 | 339 | 2.0 | 6.0 | 0.00 | 0.10 | 0.07 | 70 | 1013.3 |
| 20260502002554 | 43 | 340 | 2.0 | 5.0 | 0.00 | 0.10 | 0.07 | 70 | 1013.2 |
| 20260502002055 | 43 | 344 | 2.0 | 4.0 | 0.00 | 0.10 | 0.07 | 70 | 1013.2 |
| 20260502001602 | 43 | 317 | 2.0 | 4.0 | 0.00 | 0.10 | 0.07 | 70 | 1013.1 |
| 20260502001057 | 43 | 314 | 1.0 | 4.0 | 0.00 | 0.10 | 0.07 | 70 | 1013.1 |
| 20260502000555 | 43 | 336 | 1.0 | 5.0 | 0.00 | 0.10 | 0.07 | 71 | 1013.1 |
| 20260502000056 | 43 | 352 | 1.0 | 5.0 | 0.00 | 0.10 | 0.07 | 70 | 1013.0 |
| 20260501235559 | 43 | 335 | 2.0 | 5.0 | 0.00 | 0.10 | 0.07 | 70 | 1012.8 |
| 20260501235055 | 44 | 321 | 2.0 | 5.0 | 0.00 | 0.10 | 0.07 | 70 | 1012.8 |
| 20260501234600 | 44 | 360 | 1.0 | 6.0 | 0.00 | 0.10 | 0.07 | 69 | 1012.8 |
| 20260501234054 | 44 | 338 | 1.0 | 6.0 | 0.00 | 0.10 | 0.07 | 70 | 1012.8 |
| 20260501233555 | 44 | 328 | 0.0 | 5.0 | 0.00 | 0.10 | 0.07 | 70 | 1012.7 |
| 20260501233106 | 44 | 324 | 1.0 | 5.0 | 0.00 | 0.10 | 0.07 | 70 | 1012.7 |
| 20260501232553 | 44 | 0 | 1.0 | 6.0 | 0.00 | 0.10 | 0.07 | 71 | 1012.7 |
| 20260501232053 | 44 | 333 | 0.0 | 6.0 | 0.00 | 0.10 | 0.07 | 74 | 1012.7 |
| 20260501231624 | 44 | 333 | 1.0 | 6.0 | 0.00 | 0.10 | 0.07 | 72 | 1012.7 |
| 20260501231056 | 44 | 327 | 1.0 | 6.0 | 0.00 | 0.10 | 0.07 | 72 | 1012.6 |
| 20260501230555 | 44 | 294 | 1.0 | 4.0 | 0.00 | 0.10 | 0.07 | 73 | 1012.6 |
| 20260501230100 | 44 | 344 | 1.0 | 4.0 | 0.00 | 0.10 | 0.07 | 73 | 1012.6 |
| 20260501225555 | 43 | 0 | 0.0 | 3.0 | 0.00 | 0.10 | 0.07 | 73 | 1012.5 |
| 20260501225055 | 43 | 0 | 1.0 | 6.0 | 0.00 | 0.10 | 0.07 | 73 | 1012.8 |
| 20260501224555 | 43 | 5 | 2.0 | 6.0 | 0.00 | 0.10 | 0.07 | 72 | 1012.8 |
| 20260501224058 | 44 | 287 | 2.0 | 5.0 | 0.00 | 0.10 | 0.07 | 69 | 1012.7 |
| 20260501223558 | 45 | 256 | 0.0 | 6.0 | 0.00 | 0.10 | 0.07 | 69 | 1012.8 |
| 20260501223132 | 45 | 0 | 0.0 | 7.0 | 0.00 | 0.10 | 0.07 | 67 | 1012.8 |
| 20260501222554 | 46 | 344 | 3.0 | 7.0 | 0.00 | 0.10 | 0.07 | 65 | 1012.8 |
| 20260501222054 | 46 | 339 | 3.0 | 9.0 | 0.00 | 0.10 | 0.07 | 65 | 1012.5 |
| 20260501221558 | 46 | 327 | 2.0 | 9.0 | 0.00 | 0.10 | 0.07 | 64 | 1012.4 |
| 20260501221055 | 47 | 9 | 2.0 | 8.0 | 0.00 | 0.10 | 0.07 | 65 | 1012.3 |